Home   Weather   Jamestown   Past weeks

Flag for Saint Helena Past Weather in Jamestown, Saint Helena — Yesterday and Last 2 Weeks

Now
66 °F

Mild.


Feels Like: 66 °F
Forecast: 73 / 76 °F
Wind: 12 mph from Southeast

Location: Saint Helena Island

Current Time: Feb 27, 2017 at 7:28:08 am

Latest Report: Feb 27, 2017 at 5:00 am


Visibility: N/A

Pressure: 29.91 "Hg

Humidity: 92%

Dew Point: 64 °F

Location of JamestownLocation

Past Weather in Jamestown — Graph

°F

Jamestown Temperature Yesterday

Maximum temperature yesterday: 72 °F (at 2:00 pm)
Minimum temperature yesterday: 66 °F (at 4:00 am)
Average temperature yesterday: 68 °F

High & Low Weather Summary for the Past Weeks

 TemperatureHumidityPressure
High73 °F (Feb 22, 12:00 pm)100% (Feb 12, 6:00 am)30.07 "Hg (Feb 12, 6:00 am)
Low65 °F (Feb 12, 6:00 am)75% (Feb 25, 2:00 pm)29.87 "Hg (Feb 12, 5:00 pm)
Average68 °F93%29.98 "Hg
* Reported Feb 12 5:00 am — Feb 27 5:00 am, Jamestown, Weather by CustomWeather, © 2017

Note: Actual official high and low records may vary slightly from our data, if they occured in-between our weather recording intervals... More about our weather records

Advertising

Jamestown Weather History for the Previous 24 Hours

Scroll right to see more
 ConditionsComfort  
Time TempWeatherWind HumidityBarometerVisibility
5:00 am
Mon, Feb 27
66 °FMild.12 mph92%29.91 "HgN/A
4:00 am66 °FMild.12 mph91%29.91 "HgN/A
3:00 am66 °FMild.10 mph89%29.92 "HgN/A
2:00 am66 °FMild.10 mph89%29.95 "HgN/A
1:00 am67 °FMild.12 mph86%29.97 "HgN/A
11:00 pm
Sun, Feb 26
67 °FMild.14 mph83%30.00 "HgN/A
10:00 pm67 °FMild.12 mph87%30.00 "HgN/A
9:00 pm67 °FMild.13 mph89%29.98 "HgN/A
8:00 pm68 °FMild.12 mph85%29.98 "HgN/A
7:00 pm68 °FMild.9 mph82%29.96 "HgN/A
6:00 pm69 °FMild.13 mph84%29.95 "HgN/A
5:00 pm69 °FMild.13 mph85%29.93 "HgN/A
4:00 pm69 °FMild.14 mph81%29.94 "HgN/A
3:00 pm71 °FMild.15 mph80%29.95 "HgN/A
2:00 pm72 °FMild.15 mph79%29.97 "HgN/A
1:00 pm69 °FMild.18 mph84%30.00 "HgN/A
12:00 pm71 °FOvercast.17 mph86%30.01 "Hg22 mi
11:00 am69 °FOvercast.16 mph88%30.03 "Hg25 mi
10:00 am67 °FMild.13 mph97%30.05 "HgN/A
9:00 am67 °FMild.13 mph93%30.04 "HgN/A
8:00 am67 °FMild.13 mph83%30.03 "HgN/A
7:00 am67 °FMild.14 mph89%30.02 "HgN/A
Weather by CustomWeather, © 2017

See weather overviewHow to use our weather pages